Location: *
(50.8160°S, 176.0219°W)
Time: 23:37:23
(UTC+00:00)

USA 281 - Pass Details

Date: 19 May 2026
Orbit: 1079 x 1080 km, 106.0° (Epoch: 5 January)

Event Time Altitude Azimuth Distance (km) Brightness Sun altitude
Rises 16:34:09 0° 152° (SSE) 3,917 6.5 -25.7°
Reaches altitude 10° 16:36:44 10° 148° (SSE) 2,956 5.9 -25.3°
Maximum altitude 16:43:19 62° 68° (ENE) 1,217 3.7 -24.2°
Drops below altitude 10° 16:49:51 10° 347° (NNW) 2,927 5.4 -23.2°
Sets 16:52:23 0° 343° (NNW) 3,876 6.0 -22.8°
